Tracking 20748 objects as of 4-Jun-2020
HD Live streaming from Space Station
objects crossing your sky now
Track the most recent launched group of Starlink satellites

SCATHA AKM

Track SCATHA AKM now!


NORAD ID: 29000
Int'l Code: 1979-007C
Perigee: 28,185.3 km
Apogee: 42,670.6 km
Inclination: 14.9 °
Period: 1,417.4 minutes
Semi major axis: 41798 km
RCS: 0.003 m2 (small)
Launch date: January 30, 1979
Source: United States (US)
Launch site: AIR FORCE EASTERN TEST RANGE (AFETR)

Note: This is a ROCKET BODY
aabbcc
Your satellite tracking list
Your tracking list is empty




NASA's NSSDC Master Catalog

Two Line Element Set (TLE):
1 29000U 79007C   20156.56480703 -.00000152 +00000-0 +00000-0 0  9990
2 29000 014.9045 310.9316 1732726 061.4688 317.1510 01.01590953025569
Source of the keplerian elements: AFSPC